Location: Newark
(51.5306°N, 0.2243°W)
Time: 14:48:40
(UTC+00:00)

Envisat - Pass Details

Date: 27 September 2019
Orbit: 764 x 766 km, 98.1° (Epoch: 16 October)

Event Time Altitude Azimuth Distance (km) Brightness Sun altitude
Rises 18:24:22 0° 179° (S) 3,221 6.2 -6.4°
Reaches altitude 10° 18:26:43 10° 184° (S) 2,299 5.5 -6.8°
Maximum altitude 18:31:39 52° 260° (W) 951 4.0 -7.5°
Drops below altitude 10° 18:36:38 10° 337° (NNW) 2,315 5.9 -8.3°
Sets 18:39:01 0° 343° (NNW) 3,246 6.6 -8.7°
